Regional Weather Roundup
Issued by NWS

Home | Current Version | Previous Version | Text Only | Print | Product List | Glossary Off
Versions: 1 2 3 4 5 6 7 8 9 10 11 12 13 14 15 16 17 18 19 20 21 22 23 24 25 26 27 28 29 30 31 32 33 34 35 36 37 38 39 40 41 42 43 44 45 46 47 48 49 50

976
ASUS43 KLMK 290210
RWRKY
KENTUCKY REGIONAL WEATHER ROUNDUP
NATIONAL WEATHER SERVICE LOUISVILLE KY
1000 PM EDT THU JUL 28 2016

NOTE "FAIR" INDICATES FEW OR NO CLOUDS BELOW 12,000 FEET
WITH NO SIGNIFICANT WEATHER AND/OR OBSTRUCTIONS TO VISIBILITY.

KYZ001>023-026-027-061>063-070>075-290300-
WESTERN AND SOUTH CENTRAL KENTUCKY

CITY           SKY/WX    TMP DP  RH WIND       PRES   REMARKS
PADUCAH        CLOUDY    77  70  79 SW5       29.90R
HENDERSON      CLOUDY    72  66  83 E9G18     29.89S THUNDER
OWENSBORO      CLOUDY    77  71  81 CALM      29.92R THUNDER
HOPKINSVILLE   NOT AVBL
BOWLING GREEN  PTCLDY    78  73  84 E3        29.94R
GLASGOW        CLEAR     75  73  93 CALM      29.95R
$$

KYZ024-025-028>034-038-045-046-053-290300-
NORTH CENTRAL KENTUCKY

CITY           SKY/WX    TMP DP  RH WIND       PRES   REMARKS
LOUISVILLE/SDF MOCLDY    79  65  62 E5        29.90R
LOUISVILLE/LOU PTCLDY    77  66  68 CALM      29.91R
FORT KNOX      NOT AVBL
$$

KYZ035>037-039>044-047>052-055>060-089>105-290300-
NORTHEAST KENTUCKY

CITY           SKY/WX    TMP DP  RH WIND       PRES   REMARKS
LEXINGTON      LGT RAIN  74  71  91 S8        29.94R
COVINGTON      CLOUDY    75  73  93 S5        29.90F
FRANKFORT      LGT RAIN  76  72  87 VRB5      29.92R
$$

KYZ054-064>069-076>088-106>120-290300-
SOUTHEAST KENTUCKY

CITY           SKY/WX    TMP DP  RH WIND       PRES   REMARKS
JACKSON        PTCLDY    70  68  93 CALM      29.97R
LONDON         CLEAR     71  68  90 CALM      29.98R
SOMERSET       PTCLDY    70  70 100 CALM      29.98R
MIDDLESBORO    CLOUDY    72  71  98 CALM      29.99R
MONTICELLO     PTCLDY   N/A N/A N/A CALM      29.99R
$$





USA.gov is the U.S. government's official web portal to all federal, state and local government web resources and services.